Change the Weather History Date:

Monday, December 10, 2012

  Actual Average Record
Temperature  
Mean Temperature 53 °F 49 °F  
Max Temperature 69 °F 59 °F 80 °F (1943)
Min Temperature 36 °F 38 °F 16 °F (1937)
Degree Days  
Heating Degree Days 12 17  
Month to date heating degree days 30 155  
Since 1 July heating degree days 511 563  
Cooling Degree Days 0 0  
Month to date cooling degree days 4 0  
Year to date cooling degree days 2525 2253  
Growing Degree Days 1 (Base 50)    
Moisture  
Dew Point 51 °F    
Average Humidity 85    
Maximum Humidity 96    
Minimum Humidity 73    
Precipitation  
Precipitation 1.05 in 0.18 in 1.93 in (1932)
Month to date precipitation 2.47 1.78  
Year to date precipitation 63.28 50.77  
Sea Level Pressure  
Sea Level Pressure 29.87 in    
Wind  
Wind Speed 9 mph (NW)    
Max Wind Speed 21 mph    
Max Gust Speed 28 mph    
Visibility 7 miles    
Events Rain    
T = Trace of Precipitation, MM = Missing Value Source: NWS Daily Summary

Daily Weather History Graph

Daily Weather History Graph

Search for Another Location

Airport or City:

Trip Planner

Search our weather history database for the weather conditions in past years. The results will help you decide how hot, cold, wet, or windy it might be!

Date:

Astronomy

Dec. 10, 2012 Rise Set
Actual Time 6:51 AM CST 4:55 PM CST
Civil Twilight 6:24 AM CST 5:22 PM CST
Nautical Twilight 5:53 AM CST 5:53 PM CST
Astronomical Twilight 5:23 AM CST 6:23 PM CST
Moon 3:41 AM CST (12/10) 2:39 PM CST (12/10)
Length of Visible Light 10h 58m
Length of Day
10h 04m
Waning Crescent, 10% of the Moon is Illuminated
Dec 10
Waning Crescent
Dec 13
New
Dec 19
First Quarter
Dec 28
Full
Jan 4
Last Quarter

Hourly Weather History & Observations

Time (CST) Temp. Windchill Dew Point Humidity Pressure Visibility Wind Dir Wind Speed Gust Speed Precip Events Conditions
12:54 AM 69.1 °F - 66.0 °F 90% 29.85 in 8.0 mi South 9.2 mph - N/A   Partly Cloudy
1:31 AM 69.8 °F - 66.2 °F 88% 29.86 in 8.0 mi SSW 4.6 mph - N/A   Mostly Cloudy
1:54 AM 69.1 °F - 66.0 °F 90% 29.84 in 8.0 mi Variable 5.8 mph - N/A   Overcast
2:19 AM 64.4 °F - 59.0 °F 83% 29.84 in 4.0 mi West 5.8 mph - 0.09 in Rain Heavy Rain
2:54 AM 63.0 °F - 59.0 °F 87% 29.81 in 5.0 mi Variable 3.5 mph - 0.23 in Rain Light Rain
3:54 AM 63.0 °F - 60.1 °F 90% 29.78 in 10.0 mi Calm Calm - 0.00 in   Overcast
4:11 AM 62.6 °F - 60.8 °F 94% 29.79 in 10.0 mi Calm Calm - N/A   Overcast
4:54 AM 63.0 °F - 60.1 °F 90% 29.78 in 5.0 mi Variable 6.9 mph - 0.03 in Rain Rain
5:09 AM 62.6 °F - 60.8 °F 94% 29.80 in 2.0 mi West 4.6 mph - 0.08 in Rain Heavy Rain
5:25 AM 62.6 °F - 60.8 °F 94% 29.79 in 4.0 mi NW 9.2 mph - 0.16 in Rain Heavy Rain
5:54 AM 62.1 °F - 61.0 °F 96% 29.78 in 3.0 mi SSW 3.5 mph - 0.38 in Rain Rain
6:54 AM 62.1 °F - 61.0 °F 96% 29.76 in 6.0 mi SE 6.9 mph - 0.12 in Rain Rain
7:46 AM 62.6 °F - 60.8 °F 94% 29.78 in 10.0 mi Calm Calm - 0.10 in Rain Light Rain
7:54 AM 63.0 °F - 61.0 °F 93% 29.78 in 10.0 mi SW 3.5 mph - 0.10 in   Overcast
7:59 AM 62.6 °F - 60.8 °F 94% 29.79 in 4.0 mi SW 4.6 mph - 0.00 in Rain Light Rain
8:02 AM 62.6 °F - 60.8 °F 94% 29.79 in 1.8 mi WSW 5.8 mph - 0.00 in Rain Heavy Rain
8:17 AM 62.6 °F - 60.8 °F 94% 29.79 in 2.0 mi West 4.6 mph - 0.10 in Rain Light Rain
8:27 AM 62.6 °F - 60.8 °F 94% 29.80 in 3.0 mi West 4.6 mph - 0.11 in Rain Light Rain
8:34 AM 62.6 °F - 60.8 °F 94% 29.80 in 2.0 mi West 5.8 mph - 0.12 in Rain Light Rain
8:39 AM 62.6 °F - 60.8 °F 94% 29.81 in 3.0 mi West 9.2 mph - 0.13 in Rain Light Rain
8:54 AM 57.0 °F - 55.0 °F 93% 29.84 in 4.0 mi WNW 18.4 mph 27.6 mph 0.14 in Rain Light Rain
9:08 AM 53.6 °F - 51.8 °F 94% 29.85 in 5.0 mi NW 11.5 mph 27.6 mph 0.02 in Rain Light Rain
9:16 AM 53.6 °F - 51.8 °F 94% 29.86 in 10.0 mi NNW 15.0 mph 21.9 mph N/A Rain Light Rain
9:25 AM 53.6 °F - 51.8 °F 94% 29.87 in 10.0 mi NW 15.0 mph 20.7 mph 0.03 in Rain Light Rain
9:49 AM 51.8 °F - 50.0 °F 94% 29.89 in 8.0 mi NW 13.8 mph 21.9 mph 0.03 in Rain Light Rain
9:54 AM 52.0 °F - 50.0 °F 93% 29.89 in 6.0 mi NW 11.5 mph 21.9 mph 0.03 in Rain Light Rain
10:54 AM 50.0 °F - 46.9 °F 89% 29.90 in 10.0 mi NNW 12.7 mph 20.7 mph 0.02 in   Overcast
11:54 AM 48.9 °F - 45.0 °F 86% 29.88 in 10.0 mi NNW 15.0 mph 21.9 mph N/A   Overcast
12:54 PM 48.9 °F - 45.0 °F 86% 29.88 in 7.0 mi NNW 12.7 mph 17.3 mph N/A   Overcast
1:28 PM 48.2 °F - 42.8 °F 82% 29.88 in 9.0 mi WNW 8.1 mph - N/A   Overcast
1:54 PM 48.9 °F - 43.0 °F 80% 29.88 in 10.0 mi NNW 10.4 mph - N/A   Overcast
2:54 PM 46.9 °F - 42.1 °F 83% 29.91 in 10.0 mi NW 12.7 mph 18.4 mph N/A   Overcast
3:54 PM 46.0 °F 41.4 °F 41.0 °F 83% 29.92 in 10.0 mi NNW 9.2 mph - N/A   Overcast
4:28 PM 46.4 °F 42.4 °F 41.0 °F 81% 29.94 in 10.0 mi NNW 8.1 mph - N/A   Overcast
4:54 PM 46.0 °F 41.0 °F 41.0 °F 83% 29.95 in 10.0 mi North 10.4 mph - N/A   Overcast
5:19 PM 44.6 °F 40.2 °F 37.4 °F 76% 29.96 in 10.0 mi NNW 8.1 mph - N/A   Scattered Clouds
5:54 PM 43.0 °F 40.3 °F 37.0 °F 80% 29.97 in 10.0 mi NNW 4.6 mph - N/A   Partly Cloudy
6:54 PM 41.0 °F 39.0 °F 37.0 °F 86% 29.99 in 10.0 mi NNW 3.5 mph - N/A   Clear
7:54 PM 41.0 °F 37.1 °F 36.0 °F 82% 29.99 in 10.0 mi NNW 5.8 mph - N/A   Clear
8:54 PM 41.0 °F 35.2 °F 35.1 °F 79% 30.01 in 10.0 mi North 9.2 mph - N/A   Clear
9:52 PM 41.0 °F 33.9 °F 33.8 °F 76% 30.01 in 10.0 mi North 12.7 mph - N/A   Mostly Cloudy
9:54 PM 41.0 °F 33.9 °F 34.0 °F 76% 30.01 in 10.0 mi North 12.7 mph - N/A   Mostly Cloudy
10:54 PM 39.0 °F 31.0 °F 33.1 °F 79% 30.05 in 10.0 mi North 13.8 mph - N/A   Scattered Clouds
11:54 PM 37.0 °F 30.4 °F 28.9 °F 73% 30.06 in 10.0 mi North 9.2 mph - N/A   Partly Cloudy